Miscellaneous Local Product
Issued by NWS North Platte, NE

Home | Current Version | Previous Version | Text Only | Print | Product List | Glossary On
Versions: 1 2 3 4 5 6 7 8 9 10 11 12 13 14 15 16 17 18 19 20 21 22 23 24 25 26 27 28 29 30 31 32 33 34 35 36 37 38 39 40 41 42 43 44 45 46 47 48 49 50
000
AXUS43 KLBF 200410
MISLBF


WESTERN AND NORTH CENTRAL NEBRASKA HOURLY WEATHER ROUNDUP
NATIONAL WEATHER SERVICE NORTH PLATTE NE
1100 PM CDT TUE SEP 19 2017

NOTE: "FAIR" INDICATES FEW OR NO CLOUDS BELOW 12,000 FEET WITH NO
SIGNIFICANT WEATHER AND/OR OBSTRUCTIONS TO VISIBILITY.

NOTE: STATIONS NOT REPORTING VARIABLES SUCH AS SKY/WEATHER OR
PRESSURE ARE PROVIDED BY RAWS AND APRS NETWORKS AND ARE NOT UNDER
NATIONAL WEATHER SERVICE QUALITY CONTROL.

...OBSERVATIONS IN AND NEAR THE EASTERN PANHANDLE OF NEBRASKA...

CITY           SKY/WX    TMP DP  RH WIND       PRES   REMARKS
GORDON         MOCLDY    58  38  46 W15       29.76R
CHADRON        CLOUDY    58  29  33 NW12      29.76F
ALLIANCE       CLOUDY    52  33  48 W10       29.79R
SIDNEY         CLOUDY    52  32  46 NW18      29.80F
CRESCENT LAKE    N/A     55  32  42 NW13        N/A
$$

...OBSERVATIONS IN NORTHERN NEBRASKA AND FAR SOUTHERN SOUTH DAKOTA...

CITY           SKY/WX    TMP DP  RH WIND       PRES   REMARKS
WINNER         MOCLDY    64  48  56 W12       29.62S
VALENTINE      CLEAR     64  42  44 NW12      29.64F
THEDFORD       CLEAR     62  46  55 NW10      29.67R
AINSWORTH      CLEAR     63  50  63 NW15      29.64S
O`NEILL        PTCLDY    65  52  63 NW22G43   29.61R
ORD            CLEAR     68  47  46 NW24G38   29.57R
BROKEN BOW     CLOUDY    68  46  45 N26G36    29.61R
VALENTINE NWR    N/A     62  47  59 NW16G23     N/A
HALSEY           N/A     64  47  54 NW13G28     N/A
BUTTE            N/A     62  51  67 NW12G20     N/A
CHAMBERS         N/A     73  66  80 CALM        N/A
EWING            N/A     74  64  69 NW13G26     N/A
$$

...OBSERVATIONS IN SOUTHWEST NEBRASKA AND FAR NORTHEAST COLORADO...

CITY           SKY/WX    TMP DP  RH WIND       PRES   REMARKS
WRAY           FAIR      57  32  38 N21G32    29.78R
HOLYOKE        FAIR      59  32  36 NW22G32   29.77S
IMPERIAL       CLEAR     60  29  30 N23G36    29.74R
OGALLALA       CLEAR     60  31  33 NW13G20   29.74R
NORTH PLATTE   PTCLDY    62  40  44 NW13      29.69R
MCCOOK         CLOUDY    66  39  37 NW17G29   29.69R
LEXINGTON      CLOUDY    67  44  43 NW13G20   29.64R
STAPLETON        N/A     61  43  51 MISG        N/A
GOTHENBURG       N/A     67  35  31 NW10        N/A
CALLAWAY         N/A     66  46  49 N18         N/A
$$

...OBSERVATIONS IN CENTRAL LINCOLN COUNTY AREA...

CITY           SKY/WX    TMP DP  RH WIND       PRES   REMARKS
N.P. AIRPORT   PTCLDY    62  40  44 NW13      29.69R
N.P. DOWNTOWN    N/A     63  41  44 NW3         N/A
N.P. SOUTHEAST   N/A     63  41  43 N6G14       N/A
N.P. HILLCREST   N/A     62  40  45 NW13G20     N/A
$$

...SOME OBSERVATIONS FROM AROUND THE REGION...

CITY           SKY/WX    TMP DP  RH WIND       PRES   REMARKS
DENVER         CLEAR     47  28  47 SE13      29.85R
LIMON          CLEAR     48  31  51 N13       29.88R
ASPEN          CLOUDY    64  21  19 SW9G30    29.94S
LARAMIE        CLOUDY    39  31  72 SW13      29.99R WCI  31
CASPER         CLEAR     40  31  70 S14       29.85S WCI  32
CHEYENNE       CLEAR     43  32  65 NW32G46   29.86S
SCOTTSBLUFF    MOCLDY    52  36  54 NW9       29.79R
GRAND ISLAND   CLOUDY    77  65  66 S15       29.51S
OMAHA          CLOUDY    80  67  64 SE23G33   29.61S
SIOUX FALLS    CLOUDY    78  69  73 S23G38    29.45S
PIERRE         PTCLDY    57  50  77 NW25      29.57S
RAPID CITY     CLEAR     45  41  87 NW8       29.73S
BISMARCK       CLOUDY    56  32  40 NW15G24   29.56S
KANSAS CITY    PTCLDY    79  68  69 S20G28    29.74R
HILL CITY      CLOUDY    75  36  24 S13       29.58R
WICHITA        PTCLDY    83  71  67 S24G31    29.67R
DODGE CITY     CLOUDY    79  52  38 S20       29.65R
OKLAHOMA CITY  PTCLDY    79  69  71 S13       29.76F
DALLAS         CLOUDY    82  69  64 NW14      29.87R THUNDER
AMARILLO       CLOUDY    74  47  38 S13       29.80R
$$




USA.gov is the U.S. government's official web portal to all federal, state and local government web resources and services.